Simultaneous Nadir Overpasses (SNOs) Predictions

Prediction of SNOs between GOES-15 and TERRA Satellite Orbit:

Table of predicted SNOs for the next 14.0 days since TLE Epoch: 2/13/2025
Index Date Time (GOES-15) GOES-15 Lat,Lon TERRA Lat,Lon Distance(km) Time Diff (sec)
1 02/14/2025 05:18:58 0.00, 61.49 -0.40, 63.33 208.87 80
2 02/14/2025 17:38:41 0.00, 61.47 -0.64, 58.54 333.66 80
3 02/16/2025 17:17:21 -0.00, 61.45 0.34, 63.03 179.74 80
4 02/17/2025 05:36:56 -0.00, 61.47 0.70, 58.27 364.33 80
5 02/19/2025 05:20:55 -0.00, 61.46 -0.25, 62.77 149.07 80
6 02/19/2025 17:40:39 0.01, 61.42 -0.69, 57.96 392.57 80
7 02/21/2025 17:19:17 0.00, 61.42 0.24, 62.47 119.67 80
8 02/22/2025 05:38:52 -0.01, 61.46 0.80, 57.71 425.87 80
9 02/24/2025 05:22:50 -0.01, 61.46 -0.16, 62.22 86.31 80
10 02/24/2025 17:42:32 0.02, 61.42 -0.82, 57.42 454.50 80
11 02/26/2025 17:21:10 0.01, 61.43 0.12, 61.93 57.11 80
12 02/27/2025 05:40:44 -0.02, 61.47 0.90, 57.17 489.60 80
